Weather in Berenzhak

Russia / Republic of Khakassia     54°08′05″N   89°28′19″E
temp.,
°C
wind,
m/s
gust,
m/s
humid.,
%
clouds,
%
prec.,
mm/h
press.,
hPa
HPBL,
m
11 may, tue
tue1101:00+1e11871 0.0 102015
04:000ene11917 0.0 101812
07:00+3ene1381100 0.0 1017144
10:00+8e3652100 0.0 10151114
13:00+11ene5738100 0.0 10141660
16:00+12e5735100 0.0 10131870
19:00+11ene3640100 0.0 1014663
22:00+7n2260100 0.0 101622
12 may, wed
wed1201:00+5nnw227195 0.0 101615
04:00+4nnw2275100 0.0 101717
07:00+6nnw2368100 0.0 1017138
10:00+10ne3653100 0.0 10161092
13:00+12ne454496 0.1 10152005
16:00+12nne4543100 0.0 10141953
19:00+11n254686 0.0 10151564
22:00+6nne116580 0.0 101713
13 may, thu
thu1301:00+4nnw1172100 0.0 101810
04:00+2sw007799 0.0 101810
07:00+5sse116648 0.0 1018112
10:00+11ene12426 0.0 10161141
13:00+14ne243483 0.0 10132177
16:00+14ne2333100 0.0 10122082
19:00+12nne114399 0.0 10121432
22:00+8s215817 0.0 101314
14 may, fri
fri1401:00+6wsw227021 0.0 101318
04:00+5wsw227249 0.0 101315
07:00+8sw2569100 0.0 1012277
10:00+7ssw3882100 0.6 10111033
13:00+6wnw3788100 1.9 10121126
16:00+6wnw4782100 1.7 10131051
19:00+1n3698100 4.8 1019403
22:000nw358613 0.8 1023205
15 may, sat
sat1501:00−2wsw219191 0.8 102516
04:00−2sw228693 0.0 102533
07:00+2wsw41070100 0.0 1025960
10:00+3wsw61363100 0.0 10221113
13:00+4wsw101965100 0.1 10191050
16:00+4wsw91979100 0.4 1019831
19:00+6wsw387389 0.1 1018608
22:00+5nnw1185100 0.0 101942